Hourly Weather Ashtarak

Today, 1 October, Thursday

Time Temperature Precipitation Wind Pressure Humidity
00:00 +15°C° 0.1 mm 2 mps 657 mmHg 62%
01:00 +15°C° 0 mm 2 mps 657 mmHg 63%
02:00 +14°C° 0 mm 2 mps 657 mmHg 63%
03:00 +14°C° 0 mm 1 mps 657 mmHg 63%
04:00 +14°C° 0 mm 1 mps 657 mmHg 64%
05:00 +14°C° 0 mm 1 mps 657 mmHg 65%
06:00 +13°C° 0 mm 1 mps 657 mmHg 66%
07:00 +15°C° 0 mm 2 mps 658 mmHg 60%
08:00 +17°C° 0 mm 2 mps 658 mmHg 53%
09:00 +19°C° 0 mm 2 mps 658 mmHg 47%
10:00 +20°C° 0 mm 2 mps 659 mmHg 43%
11:00 +23°C° 0 mm 2 mps 659 mmHg 39%
12:00 +24°C° 0 mm 3 mps 659 mmHg 35%
13:00 +25°C° 0 mm 3 mps 659 mmHg 34%
14:00 +25°C° 0 mm 3 mps 658 mmHg 32%
15:00 +26°C° 0 mm 3 mps 658 mmHg 31%
16:00 +24°C° 0 mm 2 mps 658 mmHg 37%
17:00 +21°C° 0 mm 2 mps 658 mmHg 43%
18:00 +19°C° 0 mm 2 mps 658 mmHg 49%
19:00 +19°C° 0 mm 2 mps 658 mmHg 51%
20:00 +18°C° 0 mm 2 mps 658 mmHg 52%
21:00 +17°C° 0 mm 2 mps 658 mmHg 54%
22:00 +17°C° 0 mm 2 mps 658 mmHg 55%
23:00 +16°C° 0 mm 2 mps 658 mmHg 56%

Tomorrow, 2 October, Friday

Time Temperature Precipitation Wind Pressure Humidity
00:00 +16°C° 0 mm 2 mps 658 mmHg 58%
01:00 +16°C° 0 mm 1 mps 658 mmHg 58%
02:00 +15°C° 0 mm 1 mps 658 mmHg 58%
03:00 +15°C° 0 mm 1 mps 658 mmHg 58%
04:00 +15°C° 0 mm 1 mps 658 mmHg 59%
05:00 +15°C° 0 mm 1 mps 659 mmHg 60%
06:00 +14°C° 0 mm 1 mps 659 mmHg 61%
07:00 +17°C° 0 mm 2 mps 659 mmHg 55%
08:00 +19°C° 0 mm 2 mps 660 mmHg 48%
09:00 +21°C° 0 mm 2 mps 660 mmHg 42%
10:00 +23°C° 0.1 mm 2 mps 660 mmHg 40%
11:00 +24°C° 0.1 mm 3 mps 660 mmHg 38%
12:00 +25°C° 0.1 mm 3 mps 660 mmHg 36%
13:00 +25°C° 0.1 mm 3 mps 660 mmHg 35%
14:00 +26°C° 0.1 mm 3 mps 659 mmHg 34%
15:00 +26°C° 0.1 mm 3 mps 659 mmHg 33%
16:00 +24°C° 0.1 mm 3 mps 659 mmHg 37%
17:00 +23°C° 0.1 mm 2 mps 659 mmHg 40%
18:00 +20°C° 0.1 mm 2 mps 659 mmHg 44%
19:00 +20°C° 0.4 mm 2 mps 659 mmHg 49%
20:00 +19°C° 0.4 mm 3 mps 659 mmHg 53%
21:00 +18°C° 0.4 mm 3 mps 660 mmHg 58%
22:00 +17°C° 0.3 mm 3 mps 660 mmHg 60%
23:00 +16°C° 0.3 mm 2 mps 659 mmHg 62%

Day after tomorrow, 3 October, Saturday

Time Temperature Precipitation Wind Pressure Humidity
00:00 +16°C° 0.3 mm 2 mps 659 mmHg 64%
01:00 +15°C° 0 mm 2 mps 659 mmHg 65%
02:00 +15°C° 0 mm 2 mps 659 mmHg 65%
03:00 +15°C° 0 mm 1 mps 659 mmHg 65%
04:00 +14°C° 0 mm 1 mps 659 mmHg 65%
05:00 +14°C° 0 mm 1 mps 659 mmHg 65%
06:00 +14°C° 0 mm 1 mps 659 mmHg 65%
07:00 +16°C° 0 mm 1 mps 660 mmHg 58%
08:00 +19°C° 0 mm 1 mps 661 mmHg 51%
09:00 +21°C° 0 mm 1 mps 661 mmHg 45%
10:00 +22°C° 0 mm 1 mps 661 mmHg 41%
11:00 +23°C° 0 mm 2 mps 661 mmHg 37%
12:00 +24°C° 0 mm 2 mps 661 mmHg 32%
13:00 +25°C° 0 mm 2 mps 661 mmHg 30%
14:00 +25°C° 0 mm 1 mps 661 mmHg 27%
15:00 +26°C° 0 mm 1 mps 661 mmHg 24%
16:00 +24°C° 0 mm 1 mps 660 mmHg 30%
17:00 +22°C° 0 mm 1 mps 660 mmHg 36%
18:00 +19°C° 0 mm 2 mps 660 mmHg 42%
19:00 +19°C° 0 mm 2 mps 660 mmHg 46%
20:00 +18°C° 0 mm 3 mps 661 mmHg 49%
21:00 +18°C° 0 mm 3 mps 661 mmHg 52%
22:00 +17°C° 0 mm 3 mps 661 mmHg 54%
23:00 +16°C° 0 mm 3 mps 661 mmHg 55%

4 October, Sunday

Time Temperature Precipitation Wind Pressure Humidity
00:00 +16°C° 0 mm 2 mps 660 mmHg 57%
01:00 +15°C° 0 mm 2 mps 660 mmHg 58%
02:00 +15°C° 0 mm 2 mps 660 mmHg 59%
03:00 +14°C° 0 mm 2 mps 660 mmHg 60%
04:00 +14°C° 0 mm 2 mps 660 mmHg 62%
05:00 +13°C° 0 mm 1 mps 660 mmHg 63%
06:00 +13°C° 0 mm 1 mps 660 mmHg 64%
07:00 +15°C° 0 mm 1 mps 661 mmHg 59%
08:00 +18°C° 0 mm 1 mps 661 mmHg 53%
09:00 +20°C° 0 mm 1 mps 662 mmHg 47%
10:00 +21°C° 0 mm 1 mps 662 mmHg 44%
11:00 +21°C° 0 mm 2 mps 662 mmHg 41%
12:00 +23°C° 0 mm 2 mps 662 mmHg 38%
13:00 +24°C° 0 mm 2 mps 662 mmHg 35%
14:00 +25°C° 0 mm 1 mps 661 mmHg 33%
15:00 +25°C° 0 mm 1 mps 661 mmHg 31%
16:00 +23°C° 0 mm 1 mps 661 mmHg 36%
17:00 +21°C° 0 mm 1 mps 660 mmHg 41%
18:00 +18°C° 0 mm 0 mps 660 mmHg 46%
19:00 +19°C° 0 mm 1 mps 660 mmHg 49%
20:00 +17°C° 0 mm 2 mps 661 mmHg 52%
21:00 +17°C° 0 mm 2 mps 661 mmHg 55%
22:00 +16°C° 0 mm 2 mps 661 mmHg 56%
23:00 +16°C° 0 mm 2 mps 661 mmHg 56%

5 October, Monday

Time Temperature Precipitation Wind Pressure Humidity
00:00 +16°C° 0 mm 2 mps 661 mmHg 57%
01:00 +15°C° 0 mm 2 mps 661 mmHg 58%
02:00 +15°C° 0 mm 2 mps 660 mmHg 59%
03:00 +14°C° 0 mm 1 mps 660 mmHg 61%
04:00 +14°C° 0 mm 1 mps 660 mmHg 62%
05:00 +14°C° 0 mm 1 mps 660 mmHg 63%
06:00 +13°C° 0 mm 1 mps 660 mmHg 64%
07:00 +15°C° 0 mm 1 mps 661 mmHg 57%
08:00 +19°C° 0 mm 1 mps 661 mmHg 50%
09:00 +21°C° 0 mm 1 mps 662 mmHg 43%
10:00 +22°C° 0 mm 1 mps 662 mmHg 40%
11:00 +23°C° 0 mm 2 mps 662 mmHg 37%
12:00 +24°C° 0 mm 2 mps 662 mmHg 34%
13:00 +25°C° 0 mm 2 mps 661 mmHg 33%
14:00 +25°C° 0 mm 2 mps 661 mmHg 32%
15:00 +26°C° 0 mm 1 mps 661 mmHg 30%
16:00 +24°C° 0 mm 1 mps 660 mmHg 35%
17:00 +22°C° 0 mm 1 mps 660 mmHg 40%
18:00 +18°C° 0 mm 0 mps 659 mmHg 45%
19:00 +20°C° 0 mm 1 mps 660 mmHg 48%
20:00 +18°C° 0 mm 2 mps 660 mmHg 52%
21:00 +18°C° 0 mm 2 mps 660 mmHg 55%
22:00 +17°C° 0 mm 2 mps 660 mmHg 54%
23:00 +17°C° 0 mm 2 mps 660 mmHg 53%

6 October, Tuesday

Time Temperature Precipitation Wind Pressure Humidity
00:00 +17°C° 0 mm 2 mps 660 mmHg 52%
01:00 +16°C° 0 mm 2 mps 660 mmHg 54%
02:00 +16°C° 0 mm 2 mps 660 mmHg 56%
03:00 +15°C° 0 mm 1 mps 659 mmHg 57%
04:00 +15°C° 0 mm 1 mps 660 mmHg 59%
05:00 +14°C° 0 mm 1 mps 660 mmHg 60%
06:00 +14°C° 0 mm 1 mps 660 mmHg 61%
07:00 +16°C° 0 mm 1 mps 660 mmHg 55%
08:00 +19°C° 0 mm 1 mps 661 mmHg 49%
09:00 +21°C° 0 mm 1 mps 661 mmHg 43%
10:00 +23°C° 0 mm 1 mps 661 mmHg 40%
11:00 +24°C° 0 mm 2 mps 661 mmHg 37%
12:00 +25°C° 0 mm 2 mps 661 mmHg 34%
13:00 +25°C° 0 mm 2 mps 661 mmHg 33%
14:00 +26°C° 0 mm 2 mps 661 mmHg 31%
15:00 +26°C° 0 mm 1 mps 661 mmHg 30%
16:00 +24°C° 0 mm 1 mps 661 mmHg 36%
17:00 +22°C° 0 mm 1 mps 660 mmHg 42%
18:00 +20°C° 0 mm 1 mps 660 mmHg 48%
19:00 +19°C° 0 mm 2 mps 660 mmHg 51%
20:00 +18°C° 0 mm 2 mps 660 mmHg 55%
21:00 +18°C° 0 mm 3 mps 660 mmHg 58%
22:00 +17°C° 0 mm 3 mps 660 mmHg 59%
23:00 +16°C° 0 mm 3 mps 661 mmHg 61%
Show more

We Need Your Consent

Meteoprog and our Service Providers may store and access personal data such as cookies, device identifiers or other similar technologies on your device and process such data to personalise content and ads, as well as provide social media features and to analyse the traffic.

  • Store and/or access information on your device

    Cookies, device identifiers or other information can be stored or accessed on your device for the purposes indicated above.

  • Personalised ads and content, ad and content measurement, audience insights, and products development

    Ads and content can be personalised based on a profile. More data can be added to better personalise ads and content. Ad and content performance can be measured. Insights about the audience who saw the ads and content can be derived. Such data can be used to develop or improve user’s experience, systems and software.

By clicking ‘I Agree’ you will allow the use of indicated cookies, device identifiers, web beacons or other similar technologies. Your settings can be changed in the browser on your device.

For certain purposes, legitimate interests may be relied on, rather than consent. You can read more about this in our Privacy and Cookie Policy.